When you browse on this site, cookies collect data to enhance your experience and personalize the content and advertising you see.
Visit our Privacy Policy to learn more. By continuing to use the site, you agree to this use of cookies and data.

Hourly Weather Cherskaya

Today, 3 July, Friday

Time Temperature Precipitation Wind Pressure Humidity
00:00 +16°C° 0 mm 3 mps 751 mmHg 97%
01:00 +14°C° 0 mm 3 mps 751 mmHg 97%
02:00 +14°C° 0 mm 2 mps 751 mmHg 97%
03:00 +14°C° 0 mm 2 mps 752 mmHg 97%
04:00 +14°C° 0 mm 2 mps 752 mmHg 97%
05:00 +14°C° 0 mm 2 mps 752 mmHg 96%
06:00 +15°C° 0 mm 2 mps 752 mmHg 92%
07:00 +16°C° 0 mm 2 mps 753 mmHg 88%
08:00 +17°C° 0 mm 2 mps 753 mmHg 84%
09:00 +19°C° 0 mm 2 mps 753 mmHg 73%
10:00 +21°C° 0 mm 3 mps 753 mmHg 62%
11:00 +24°C° 0 mm 3 mps 753 mmHg 51%
12:00 +24°C° 0 mm 3 mps 753 mmHg 49%
13:00 +25°C° 0 mm 3 mps 753 mmHg 48%
14:00 +25°C° 0 mm 2 mps 753 mmHg 46%
15:00 +25°C° 0 mm 2 mps 753 mmHg 48%
16:00 +25°C° 0 mm 2 mps 753 mmHg 50%
17:00 +25°C° 0 mm 2 mps 753 mmHg 52%
18:00 +23°C° 0 mm 2 mps 753 mmHg 59%
19:00 +22°C° 0 mm 1 mps 753 mmHg 66%
20:00 +20°C° 0 mm 1 mps 753 mmHg 74%
21:00 +19°C° 0 mm 1 mps 753 mmHg 76%
22:00 +16°C° 0 mm 1 mps 753 mmHg 78%
23:00 +15°C° 0 mm 1 mps 753 mmHg 80%

Tomorrow, 4 July, Saturday

Time Temperature Precipitation Wind Pressure Humidity
00:00 +15°C° 0 mm 1 mps 753 mmHg 79%
01:00 +14°C° 0 mm 0 mps 754 mmHg 77%
02:00 +14°C° 0 mm 0 mps 754 mmHg 76%
03:00 +15°C° 0 mm 1 mps 754 mmHg 78%
04:00 +15°C° 0 mm 1 mps 754 mmHg 80%
05:00 +15°C° 0 mm 1 mps 754 mmHg 81%
06:00 +18°C° 0 mm 1 mps 754 mmHg 77%
07:00 +19°C° 0 mm 1 mps 754 mmHg 72%
08:00 +20°C° 0 mm 2 mps 754 mmHg 67%
09:00 +21°C° 0 mm 2 mps 754 mmHg 63%
10:00 +22°C° 0 mm 3 mps 754 mmHg 59%
11:00 +23°C° 0 mm 4 mps 753 mmHg 56%
12:00 +25°C° 0 mm 4 mps 753 mmHg 52%
13:00 +25°C° 0 mm 4 mps 753 mmHg 49%
14:00 +26°C° 0 mm 5 mps 753 mmHg 45%
15:00 +26°C° 0 mm 4 mps 753 mmHg 47%
16:00 +25°C° 0 mm 4 mps 752 mmHg 49%
17:00 +25°C° 0 mm 4 mps 752 mmHg 51%
18:00 +23°C° 0 mm 4 mps 752 mmHg 58%
19:00 +21°C° 0 mm 3 mps 752 mmHg 65%
20:00 +20°C° 0 mm 3 mps 752 mmHg 71%
21:00 +19°C° 0 mm 3 mps 752 mmHg 75%
22:00 +18°C° 0 mm 3 mps 752 mmHg 78%
23:00 +17°C° 0 mm 3 mps 752 mmHg 81%

Day after tomorrow, 5 July, Sunday

Time Temperature Precipitation Wind Pressure Humidity
00:00 +17°C° 0 mm 3 mps 752 mmHg 84%
01:00 +16°C° 0 mm 3 mps 753 mmHg 88%
02:00 +14°C° 0 mm 3 mps 753 mmHg 91%
03:00 +14°C° 0 mm 3 mps 753 mmHg 91%
04:00 +14°C° 0 mm 3 mps 752 mmHg 91%
05:00 +14°C° 0 mm 3 mps 752 mmHg 92%
06:00 +16°C° 0 mm 3 mps 752 mmHg 89%
07:00 +17°C° 0 mm 3 mps 752 mmHg 86%
08:00 +17°C° 0 mm 3 mps 752 mmHg 83%
09:00 +17°C° 0.1 mm 3 mps 752 mmHg 85%
10:00 +17°C° 0.1 mm 3 mps 752 mmHg 87%
11:00 +17°C° 0.1 mm 3 mps 752 mmHg 89%
12:00 +17°C° 0.2 mm 3 mps 752 mmHg 90%
13:00 +18°C° 0.2 mm 3 mps 752 mmHg 91%
14:00 +18°C° 0.2 mm 3 mps 751 mmHg 91%
15:00 +18°C° 0 mm 4 mps 751 mmHg 87%
16:00 +19°C° 0 mm 4 mps 751 mmHg 84%
17:00 +20°C° 0 mm 4 mps 751 mmHg 80%
18:00 +20°C° 0 mm 3 mps 750 mmHg 82%
19:00 +20°C° 0 mm 3 mps 750 mmHg 83%
20:00 +19°C° 0 mm 2 mps 750 mmHg 85%
21:00 +19°C° 0 mm 3 mps 750 mmHg 87%
22:00 +18°C° 0 mm 3 mps 749 mmHg 89%
23:00 +18°C° 0 mm 4 mps 749 mmHg 91%

6 July, Monday

Time Temperature Precipitation Wind Pressure Humidity
00:00 +18°C° 0 mm 4 mps 749 mmHg 91%
01:00 +18°C° 0 mm 4 mps 749 mmHg 91%
02:00 +18°C° 0 mm 4 mps 748 mmHg 91%
03:00 +18°C° 0.1 mm 4 mps 748 mmHg 90%
04:00 +18°C° 0.1 mm 4 mps 747 mmHg 90%
05:00 +18°C° 0.1 mm 4 mps 747 mmHg 90%
06:00 +19°C° 0.2 mm 5 mps 747 mmHg 91%
07:00 +19°C° 0.2 mm 5 mps 747 mmHg 92%
08:00 +19°C° 0.2 mm 5 mps 747 mmHg 93%
09:00 +19°C° 0.4 mm 5 mps 747 mmHg 91%
10:00 +20°C° 0.4 mm 5 mps 747 mmHg 88%
11:00 +21°C° 0.4 mm 5 mps 747 mmHg 86%
12:00 +21°C° 0.7 mm 5 mps 747 mmHg 84%
13:00 +22°C° 0.7 mm 5 mps 746 mmHg 82%
14:00 +22°C° 0.7 mm 5 mps 746 mmHg 80%
15:00 +22°C° 0.2 mm 5 mps 746 mmHg 77%
16:00 +23°C° 0.2 mm 4 mps 746 mmHg 74%
17:00 +23°C° 0.2 mm 4 mps 746 mmHg 71%
18:00 +22°C° 0.1 mm 4 mps 746 mmHg 75%
19:00 +20°C° 0.1 mm 3 mps 746 mmHg 80%
20:00 +19°C° 0.1 mm 3 mps 746 mmHg 84%
21:00 +18°C° 0 mm 3 mps 747 mmHg 86%
22:00 +18°C° 0 mm 3 mps 747 mmHg 88%
23:00 +17°C° 0 mm 3 mps 748 mmHg 90%

7 July, Tuesday

Time Temperature Precipitation Wind Pressure Humidity
00:00 +14°C° 0 mm 3 mps 748 mmHg 90%
01:00 +13°C° 0 mm 3 mps 748 mmHg 90%
02:00 +12°C° 0 mm 3 mps 748 mmHg 91%
03:00 +12°C° 0 mm 3 mps 749 mmHg 90%
04:00 +12°C° 0 mm 3 mps 749 mmHg 89%
05:00 +12°C° 0 mm 3 mps 749 mmHg 88%
06:00 +13°C° 0 mm 4 mps 749 mmHg 80%
07:00 +15°C° 0 mm 5 mps 750 mmHg 73%
08:00 +17°C° 0 mm 5 mps 750 mmHg 65%
09:00 +19°C° 0 mm 5 mps 750 mmHg 61%
10:00 +20°C° 0 mm 6 mps 750 mmHg 56%
11:00 +21°C° 0 mm 6 mps 750 mmHg 52%
12:00 +21°C° 0 mm 6 mps 750 mmHg 50%
13:00 +21°C° 0 mm 6 mps 750 mmHg 48%
14:00 +22°C° 0 mm 6 mps 750 mmHg 46%
15:00 +21°C° 0 mm 6 mps 750 mmHg 48%
16:00 +21°C° 0 mm 5 mps 751 mmHg 49%
17:00 +20°C° 0 mm 5 mps 751 mmHg 50%
18:00 +19°C° 0 mm 4 mps 751 mmHg 56%
19:00 +17°C° 0 mm 3 mps 751 mmHg 63%
20:00 +16°C° 0 mm 3 mps 751 mmHg 69%
21:00 +14°C° 0 mm 3 mps 751 mmHg 72%
22:00 +12°C° 0 mm 3 mps 752 mmHg 76%
23:00 +11°C° 0 mm 3 mps 752 mmHg 79%

8 July, Wednesday

Time Temperature Precipitation Wind Pressure Humidity
00:00 +10°C° 0 mm 3 mps 752 mmHg 82%
01:00 +10°C° 0 mm 3 mps 752 mmHg 85%
02:00 +9°C° 0 mm 3 mps 752 mmHg 88%
03:00 +9°C° 0 mm 3 mps 752 mmHg 89%
04:00 +10°C° 0 mm 3 mps 752 mmHg 89%
05:00 +10°C° 0 mm 3 mps 753 mmHg 90%
06:00 +11°C° 0 mm 3 mps 753 mmHg 84%
07:00 +13°C° 0 mm 3 mps 753 mmHg 79%
08:00 +16°C° 0 mm 3 mps 753 mmHg 73%
09:00 +17°C° 0 mm 3 mps 753 mmHg 67%
10:00 +18°C° 0 mm 3 mps 753 mmHg 61%
11:00 +20°C° 0 mm 4 mps 753 mmHg 55%
12:00 +20°C° 0.3 mm 4 mps 753 mmHg 59%
13:00 +20°C° 0.3 mm 4 mps 753 mmHg 62%
14:00 +20°C° 0.3 mm 4 mps 753 mmHg 66%
15:00 +20°C° 0.5 mm 3 mps 753 mmHg 67%
16:00 +20°C° 0.5 mm 3 mps 753 mmHg 69%
17:00 +20°C° 0.5 mm 3 mps 753 mmHg 70%
18:00 +19°C° 0.1 mm 2 mps 753 mmHg 75%
19:00 +17°C° 0.1 mm 2 mps 753 mmHg 80%
20:00 +16°C° 0.1 mm 2 mps 754 mmHg 84%
21:00 +15°C° 0 mm 2 mps 754 mmHg 87%
22:00 +14°C° 0 mm 2 mps 754 mmHg 90%
23:00 +13°C° 0 mm 2 mps 755 mmHg 93%
Show more